sat.trackr.live / text

‹ back to catalog

STARLINK-36967

NORAD 68013 · 2026-039AD

PAYLOAD ACTIVE UNKNOWN

§ Identity

Operator
Country
US
Launch date
2026-02-27
Launch site
AFETR
Launch vehicle
Mass (kg)
RCS (m²)

Purposes: comms

External: N2YO · Heavens-Above · Gunter

§ Orbital elements

Epoch: 2026-09-20T01:52:30.648000Z

Period
94.27 min
Inclination
43.0072°
Eccentricity
0.0005027
Mean motion
15.27599084 rev/d
Perigee alt
479.5 km
Apogee alt
486.4 km
Semi-major
6,861.1 km
B*
4.6079e-4
RAAN
31.0473°
Arg perigee
263.5193°
Mean anomaly
96.5087°
Rev number
3,143

§ Raw data

STARLINK-369671 68013U 26039AD  26263.07813250  .00012449  00000+0  46079-3 0  99912 68013  43.0072  31.0473 0005027 263.5193  96.5087 15.27599084 31433

JSON: /api/v1/satellites/68013 · /tle

For live sub-satellite position, see the globe view (requires WebGL).

§ Visibility from observer

Set your observer location to see the next 7 days of passes ≥ 10°. The values pass through the URL so the page stays shareable.

No JS? Fill the form by hand. The geolocation button needs JavaScript.